Regional Weather Roundup
Issued by NWS

Home | Current Version | Previous Version | Graphics & Text | Print | Product List | Glossary On
Versions: 1 2 3 4 5 6 7 8 9 10 11 12 13 14 15 16 17 18 19 20 21 22 23 24 25 26 27 28 29 30 31 32 33 34 35 36 37 38 39 40 41 42 43 44 45 46 47 48 49 50
000
ASUS45 KSLC 171410
RWRUT

UTAH REGIONAL WEATHER ROUNDUP
NATIONAL WEATHER SERVICE SALT LAKE CITY UT
700 AM MST SAT FEB 17 2018

UTZ001>011-023>025-171500-

NORTHERN UTAH

CITY           SKY/WX    TMP DP  RH WIND       PRES   REMARKS
BRIGHAM CITY   PTCLDY    35  19  50 CALM      30.19S
HILL AFB       CLEAR     31  14  48 CALM      30.17F
LOGAN          MOCLDY    33  19  56 NE3       30.16F
OGDEN          CLEAR     31  15  52 S7        30.17F WCI  24
SALT LAKE CITY PTCLDY    32  18  56 SE10      30.19F WCI  24
TOOELE VALLEY  CLEAR     28  18  64 S8        30.19F WCI  20
WENDOVER       PTCLDY    19   9  65 S6        30.19F WCI  11
HEBER CITY       N/A     18  12  79 CALM      30.19R
WEST JORDAN    CLEAR     26  18  71 SW6       30.20S WCI  19

$$

UTZ011>015-024>027-171500-

CENTRAL/NORTHEAST UTAH

CITY           SKY/WX    TMP DP  RH WIND       PRES   REMARKS
PROVO AIRPORT  CLEAR     21  16  81 SE7       30.24S WCI  12
MOAB/CANYONLAN CLEAR     23  19  85 CALM      30.21R
DELTA          MOCLDY    19  14  79 CALM      30.22S
PRICE          CLEAR     20  10  65 N9        30.19R WCI   9
ROOSEVELT      CLEAR     16   7  67 CALM      30.20R
VERNAL         PTCLDY    21   9  59 NW6       30.17R WCI  13

$$

UTZ013>016-019>022-027-171500-

SOUTHERN UTAH

CITY           SKY/WX    TMP DP  RH WIND       PRES   REMARKS
BRYCE CANYON   PTCLDY    13   8  81 W8        30.22R WCI   2
CEDAR CITY     PTCLDY    21  15  78 N5        30.19S WCI  15
MILFORD        PTCLDY    17  12  80 SW6       30.21S WCI   9
ST GEORGE      SUNNY     32  27  81 SE3       30.25R
HANKSVILLE     PTCLDY    19  12  73 CALM      30.25R
BLANDING         N/A     20  14  78 N8        30.29R WCI  10

$$

REGIONAL REPORTS     COLORADO/ARIZONA

CITY           SKY/WX    TMP DP  RH WIND       PRES   REMARKS
CRAIG, CO      MOCLDY     8   2  76 E3        30.18R
GRAND JUNCTION CLEAR     22  19  89 CALM      30.23R
RIFLE, CO      CLEAR     19  13  77 S3        30.24R
MONTROSE, CO   CLEAR     17  14  88 SE6       30.25R WCI   9
CORTEZ, CO     PTCLDY    13  11  92 CALM      30.23R
COLORADO CITY    N/A     23  21  93 SE6       30.24R WCI  16
PAGE, AZ       PTCLDY    30  21  69 W3        30.22R
GRAND CANYON   PTCLDY    15  11  83 CALM      30.22R
KINGMAN, AZ    CLEAR     30  22  72 CALM      30.18R
FLAGSTAFF, AZ  CLEAR     20  18  92 NE3       30.20S

$$

REGIONAL REPORTS    NEVADA/IDAHO/WYOMING

CITY           SKY/WX    TMP DP  RH WIND       PRES   REMARKS
LAS VEGAS, NV  CLEAR     41  19  41 CALM      30.19R
ELY, NY        PTCLDY    20  12  71 S12       30.21F WCI   8
ELKO, NV       CLEAR     15  12  88 W3        30.17F
POCATELLO, ID  MOCLDY    34  24  67 SW15      30.11F WCI  24
BURLEY, ID     CLOUDY    33  24  69 W9        30.12S WCI  25
FORT BRIDGER,    N/A     24  16  70 W10       30.12S WCI  14
EVANSTON, WY   CLEAR     24  15  68 SW23      30.10F WCI   9
ROCK SPRINGS,  CLEAR     26  12  55 W24G33    30.05F WCI  11

$$



USA.gov is the U.S. government's official web portal to all federal, state and local government web resources and services.